星链-11509 (STARLINK-11509)

导读

STARLINK-11509是美国SpaceX公司星链星座的成员卫星,于2025年2月21日发射入轨。星链项目旨在构建覆盖全球的低轨卫星互联网星座,为全球用户提供高速宽带服务。该卫星继承星链典型设计,依托低轨布局降低通信延迟,是美国推进大规模卫星互联网部署进程中,补充完善星座网络的一枚功能性卫星。

基本信息
目录编号:
63059
目录名称:
STARLINK-11509
国际标识:
2025-035H
轨道中心:
EARTH
卫星名称:
星链-11509
卫星全名:
星链-11509 (STARLINK-11509)
卫星状态:
在轨 (已飞行568 天)
发射日期:
2025-02-21 UTC
国别 :
美国 (US)
星等 :
--
该卫星已列入 空间交会检测服务 Space Conjunction Data Service (SCDS) ,当前飞行风险评估等级: 无高风险
轨道信息
数据来源 国际轨道数据
星历时间: 2026-09-12T14:38:54+0800
14小时前
查看轨道信息
半长轴: 6734.333km
偏心率: 0.0001908
轨道倾角: 42.997°
近地点辐角 237.611°
升交点赤经 330.881°
平近点角 122.457°
近地点: 354.911km
远地点: 357.481km
周期: 91.665分钟
每日圈数: 15.709448
详细信息
固有亮度:
5
最大亮度:
2.5
卫星平台:
Starlink V1.0
覆盖范围:
全球
运营商:
太空探索技术公司
运营商所在国:
美国
制造商(研发单位):
太空探索技术公司
制造商所在国:
美国
使用方式:
暂无
卫星简介
Starlink 计划是 SpaceX 推出的全球卫星互联网项目,通过发射低轨道卫星,为全球尤其是偏远地区提供高速、低延迟的互联网服务。自 2019 年起,Starlink 已部署数千颗卫星,旨在缩小全球数字鸿沟,推动互联网普及。该项目还为军事、航空等行业提供通信支持,带来广泛经济效益。
2D轨道图
3D轨道图
轨道高度分析图
轨道倾角分析图
轨道综合分析图
查看轨道综合分析图
交会数据列表
事件ID 空间交会对象 最接近时刻(TCA) 交会距离 交会风险概率(CRP) 交会风险指数(CRI) 操作
CDM_260915-033706-222206-305921
2026-09-15T
03:37:06+0000
2.087 km
极远距离
1.530971E-6 低风险 0.39
与全量物体交会距离演化趋势
与全量物体交会风险概率演化趋势